• In Hungary
  • List of Countries
  • For 7 days
  • Water Temperature
  • Satellite Maps
  • Weather Map
  • News
  • Weather Widgets
  • user-avatar
    Login

    Hourly Weather Mayrhofen

    Today, 18 August, Friday

    Time Temperature Precipitation Wind Pressure Humidity
    00:00 +11°C° 0 mm 1 mps 622 mmHg 89%
    01:00 +10°C° 0 mm 2 mps 622 mmHg 90%
    02:00 +11°C° 0 mm 1 mps 621 mmHg 90%
    03:00 +11°C° 0 mm 1 mps 621 mmHg 91%
    04:00 +11°C° 0 mm 1 mps 621 mmHg 91%
    05:00 +12°C° 0 mm 1 mps 622 mmHg 89%
    06:00 +13°C° 0 mm 1 mps 622 mmHg 87%
    07:00 +15°C° 0 mm 2 mps 623 mmHg 83%
    08:00 +17°C° 0 mm 2 mps 623 mmHg 75%
    09:00 +19°C° 0 mm 2 mps 624 mmHg 66%
    10:00 +21°C° 0 mm 2 mps 624 mmHg 58%
    11:00 +21°C° 0.1 mm 2 mps 624 mmHg 56%
    12:00 +23°C° 0.1 mm 2 mps 624 mmHg 54%
    13:00 +24°C° 0.1 mm 2 mps 624 mmHg 52%
    14:00 +23°C° 0.5 mm 2 mps 623 mmHg 56%
    15:00 +21°C° 0.5 mm 2 mps 623 mmHg 61%
    16:00 +20°C° 0.5 mm 2 mps 622 mmHg 65%
    17:00 +19°C° 1.1 mm 2 mps 621 mmHg 72%
    18:00 +17°C° 1.1 mm 2 mps 621 mmHg 79%
    19:00 +16°C° 1.1 mm 2 mps 620 mmHg 87%
    20:00 +15°C° 1.1 mm 2 mps 620 mmHg 90%
    21:00 +14°C° 1.1 mm 2 mps 620 mmHg 93%
    22:00 +13°C° 1.1 mm 2 mps 620 mmHg 96%
    23:00 +13°C° 1 mm 2 mps 620 mmHg 96%

    Tomorrow, 19 August, Saturday

    Time Temperature Precipitation Wind Pressure Humidity
    00:00 +13°C° 1 mm 1 mps 620 mmHg 96%
    01:00 +12°C° 1 mm 1 mps 620 mmHg 97%
    02:00 +12°C° 4.7 mm 1 mps 620 mmHg 97%
    03:00 +12°C° 4.7 mm 1 mps 620 mmHg 97%
    04:00 +11°C° 4.7 mm 1 mps 619 mmHg 98%
    05:00 +11°C° 3.5 mm 1 mps 619 mmHg 97%
    06:00 +9°C° 3.5 mm 2 mps 619 mmHg 96%
    07:00 +9°C° 3.5 mm 2 mps 619 mmHg 96%
    08:00 +9°C° 1.7 mm 2 mps 619 mmHg 95%
    09:00 +9°C° 1.7 mm 2 mps 620 mmHg 94%
    10:00 +9°C° 1.7 mm 2 mps 620 mmHg 92%
    11:00 +9°C° 1.8 mm 2 mps 620 mmHg 93%
    12:00 +9°C° 1.8 mm 2 mps 620 mmHg 93%
    13:00 +9°C° 1.8 mm 2 mps 619 mmHg 93%
    14:00 +8°C° 1.6 mm 2 mps 619 mmHg 93%
    15:00 +8°C° 1.6 mm 2 mps 620 mmHg 93%
    16:00 +8°C° 1.6 mm 2 mps 620 mmHg 93%
    17:00 +8°C° 0.5 mm 2 mps 620 mmHg 93%
    18:00 +7°C° 0.5 mm 2 mps 620 mmHg 93%
    19:00 +7°C° 0.5 mm 2 mps 620 mmHg 92%
    20:00 +6°C° 0 mm 2 mps 620 mmHg 93%
    21:00 +6°C° 0 mm 2 mps 620 mmHg 93%
    22:00 +5°C° 0 mm 2 mps 620 mmHg 94%
    23:00 +5°C° 0 mm 2 mps 620 mmHg 94%

    Day after tomorrow, 20 August, Sunday

    Time Temperature Precipitation Wind Pressure Humidity
    00:00 +4°C° 0 mm 2 mps 620 mmHg 95%
    01:00 +4°C° 0 mm 2 mps 619 mmHg 95%
    02:00 +4°C° 0 mm 2 mps 620 mmHg 95%
    03:00 +4°C° 0 mm 2 mps 620 mmHg 95%
    04:00 +4°C° 0 mm 2 mps 620 mmHg 95%
    05:00 +5°C° 0.1 mm 2 mps 620 mmHg 94%
    06:00 +5°C° 0.1 mm 2 mps 620 mmHg 92%
    07:00 +6°C° 0.1 mm 2 mps 621 mmHg 91%
    08:00 +7°C° 0.1 mm 2 mps 621 mmHg 84%
    09:00 +9°C° 0.1 mm 2 mps 622 mmHg 77%
    10:00 +10°C° 0.1 mm 2 mps 622 mmHg 70%
    11:00 +12°C° 0.1 mm 2 mps 623 mmHg 64%
    12:00 +13°C° 0.1 mm 2 mps 623 mmHg 58%
    13:00 +14°C° 0.1 mm 2 mps 623 mmHg 51%
    14:00 +14°C° 0.1 mm 2 mps 623 mmHg 52%
    15:00 +14°C° 0.1 mm 2 mps 623 mmHg 53%
    16:00 +14°C° 0.1 mm 2 mps 623 mmHg 53%
    17:00 +12°C° 0 mm 2 mps 622 mmHg 64%
    18:00 +9°C° 0 mm 2 mps 622 mmHg 74%
    19:00 +8°C° 0 mm 2 mps 621 mmHg 85%
    20:00 +7°C° 0 mm 2 mps 621 mmHg 88%
    21:00 +7°C° 0 mm 1 mps 621 mmHg 90%
    22:00 +6°C° 0 mm 1 mps 621 mmHg 93%
    23:00 +5°C° 0 mm 1 mps 621 mmHg 93%

    21 August, Monday

    Time Temperature Precipitation Wind Pressure Humidity
    00:00 +5°C° 0 mm 1 mps 621 mmHg 93%
    01:00 +4°C° 0 mm 1 mps 621 mmHg 93%
    02:00 +4°C° 0 mm 1 mps 620 mmHg 92%
    03:00 +4°C° 0 mm 1 mps 620 mmHg 90%
    04:00 +3°C° 0 mm 1 mps 620 mmHg 89%
    05:00 +5°C° 0 mm 1 mps 620 mmHg 83%
    06:00 +6°C° 0 mm 1 mps 621 mmHg 77%
    07:00 +7°C° 0 mm 1 mps 621 mmHg 71%
    08:00 +10°C° 0 mm 1 mps 622 mmHg 62%
    09:00 +12°C° 0 mm 2 mps 623 mmHg 52%
    10:00 +14°C° 0 mm 2 mps 624 mmHg 42%
    11:00 +15°C° 0 mm 2 mps 624 mmHg 40%
    12:00 +16°C° 0 mm 2 mps 624 mmHg 38%
    13:00 +17°C° 0 mm 2 mps 624 mmHg 36%
    14:00 +17°C° 0 mm 2 mps 624 mmHg 38%
    15:00 +17°C° 0 mm 2 mps 624 mmHg 40%
    16:00 +16°C° 0 mm 3 mps 623 mmHg 43%
    17:00 +14°C° 0 mm 2 mps 623 mmHg 55%
    18:00 +12°C° 0 mm 2 mps 622 mmHg 67%
    19:00 +9°C° 0 mm 2 mps 621 mmHg 79%
    20:00 +9°C° 0 mm 1 mps 621 mmHg 84%
    21:00 +7°C° 0 mm 1 mps 621 mmHg 88%
    22:00 +6°C° 0 mm 1 mps 621 mmHg 93%
    23:00 +6°C° 0 mm 1 mps 621 mmHg 93%

    22 August, Tuesday

    Time Temperature Precipitation Wind Pressure Humidity
    00:00 +6°C° 0 mm 1 mps 620 mmHg 92%
    01:00 +5°C° 0 mm 1 mps 620 mmHg 92%
    02:00 +5°C° 0 mm 1 mps 620 mmHg 91%
    03:00 +5°C° 0 mm 1 mps 620 mmHg 91%
    04:00 +5°C° 0 mm 1 mps 620 mmHg 90%
    05:00 +6°C° 0 mm 1 mps 620 mmHg 86%
    06:00 +8°C° 0 mm 1 mps 621 mmHg 82%
    07:00 +9°C° 0 mm 1 mps 622 mmHg 78%
    08:00 +12°C° 0 mm 1 mps 622 mmHg 68%
    09:00 +14°C° 0 mm 1 mps 623 mmHg 58%
    10:00 +16°C° 0 mm 1 mps 624 mmHg 48%
    11:00 +18°C° 0 mm 1 mps 624 mmHg 46%
    12:00 +18°C° 0 mm 2 mps 624 mmHg 43%
    13:00 +19°C° 0 mm 2 mps 624 mmHg 40%
    14:00 +19°C° 0 mm 2 mps 624 mmHg 42%
    15:00 +19°C° 0 mm 2 mps 623 mmHg 44%
    16:00 +19°C° 0 mm 3 mps 623 mmHg 46%
    17:00 +16°C° 0 mm 2 mps 622 mmHg 58%
    18:00 +14°C° 0 mm 2 mps 621 mmHg 71%
    19:00 +11°C° 0 mm 1 mps 621 mmHg 83%
    20:00 +10°C° 0 mm 1 mps 620 mmHg 86%
    21:00 +9°C° 0 mm 1 mps 620 mmHg 89%
    22:00 +8°C° 0 mm 1 mps 620 mmHg 92%
    23:00 +8°C° 0 mm 1 mps 620 mmHg 91%

    23 August, Wednesday

    Time Temperature Precipitation Wind Pressure Humidity
    00:00 +8°C° 0 mm 1 mps 620 mmHg 91%
    01:00 +8°C° 0 mm 1 mps 620 mmHg 90%
    02:00 +7°C° 0 mm 1 mps 620 mmHg 90%
    03:00 +7°C° 0 mm 1 mps 619 mmHg 89%
    04:00 +7°C° 0 mm 1 mps 619 mmHg 89%
    05:00 +9°C° 0 mm 1 mps 620 mmHg 84%
    06:00 +10°C° 0 mm 1 mps 621 mmHg 79%
    07:00 +12°C° 0 mm 1 mps 621 mmHg 74%
    08:00 +14°C° 0 mm 1 mps 622 mmHg 64%
    09:00 +18°C° 0 mm 1 mps 623 mmHg 54%
    10:00 +20°C° 0 mm 1 mps 624 mmHg 45%
    11:00 +21°C° 0 mm 1 mps 624 mmHg 42%
    12:00 +21°C° 0 mm 2 mps 624 mmHg 40%
    13:00 +23°C° 0 mm 2 mps 624 mmHg 37%
    14:00 +21°C° 0.1 mm 2 mps 624 mmHg 39%
    15:00 +21°C° 0.1 mm 2 mps 624 mmHg 42%
    16:00 +21°C° 0.1 mm 2 mps 624 mmHg 44%
    17:00 +18°C° 0.1 mm 2 mps 623 mmHg 56%
    18:00 +15°C° 0.1 mm 1 mps 622 mmHg 68%
    19:00 +13°C° 0.1 mm 1 mps 621 mmHg 81%
    20:00 +12°C° 0 mm 1 mps 621 mmHg 83%
    21:00 +11°C° 0 mm 1 mps 621 mmHg 85%
    22:00 +10°C° 0 mm 1 mps 621 mmHg 87%
    23:00 +9°C° 0 mm 1 mps 621 mmHg 85%
    Show more